| time (UTC) | temp C | wind direction | speed KPH | gust KPH | rain 1hr cm | rain 24hr cm | rain mn cm | humidity % | barometer mb |
| 20260507030846 | 7 | 208 | 6.4 | 9.7 | 0.00 | 1.04 | 1.04 | 81 | 1008.2 |
| 20260507030344 | 7 | 195 | 3.2 | 3.2 | 0.00 | 1.04 | 1.04 | 81 | 1008.7 |
| 20260507025840 | 7 | 205 | 3.2 | 3.2 | 0.00 | 1.04 | 1.04 | 81 | 1008.6 |
| 20260507025338 | 7 | 209 | 3.2 | 3.2 | 0.00 | 1.04 | 1.04 | 81 | 1008.6 |
| 20260507024835 | 7 | 220 | 3.2 | 4.8 | 0.00 | 1.04 | 1.04 | 81 | 1008.6 |
| 20260507024332 | 7 | 266 | 4.8 | 4.8 | 0.00 | 1.04 | 1.04 | 80 | 1008.6 |
| 20260507023828 | 7 | 247 | 3.2 | 8.0 | 0.00 | 1.04 | 1.04 | 80 | 1008.8 |
| 20260507023325 | 7 | 263 | 4.8 | 4.8 | 0.00 | 1.04 | 1.04 | 80 | 1008.4 |
| 20260507022822 | 7 | 269 | 6.4 | 9.7 | 0.00 | 1.04 | 1.04 | 80 | 1008.8 |
| 20260507022319 | 7 | 261 | 6.4 | 9.7 | 0.00 | 1.04 | 1.04 | 80 | 1008.7 |
| 20260507021815 | 7 | 284 | 4.8 | 4.8 | 0.00 | 1.04 | 1.04 | 80 | 1009.0 |
| 20260507021311 | 7 | 257 | 4.8 | 4.8 | 0.00 | 1.04 | 1.04 | 79 | 1008.8 |
| 20260507020809 | 7 | 225 | 4.8 | 4.8 | 0.00 | 1.04 | 1.04 | 79 | 1008.8 |
| 20260507020305 | 7 | 263 | 6.4 | 8.0 | 0.00 | 1.04 | 1.04 | 78 | 1008.9 |
| 20260507015803 | 7 | 220 | 4.8 | 4.8 | 0.00 | 1.04 | 1.04 | 78 | 1009.0 |
| 20260507015300 | 7 | 201 | 1.6 | 3.2 | 0.00 | 1.04 | 1.04 | 78 | 1009.0 |
| 20260507014757 | 7 | 193 | 1.6 | 1.6 | 0.00 | 1.04 | 1.04 | 77 | 1009.1 |
| 20260507014253 | 7 | 261 | 4.8 | 4.8 | 0.00 | 1.04 | 1.04 | 75 | 1009.2 |
| 20260507013749 | 7 | 287 | 6.4 | 8.0 | 0.00 | 1.04 | 1.04 | 74 | 1009.0 |
| 20260507013247 | 7 | 263 | 4.8 | 4.8 | 0.00 | 1.04 | 1.04 | 73 | 1008.9 |
| 20260507012744 | 7 | 248 | 4.8 | 4.8 | 0.00 | 1.04 | 1.04 | 75 | 1008.8 |
| 20260507012244 | 7 | 197 | 4.8 | 4.8 | 0.00 | 1.04 | 1.04 | 77 | 1008.9 |
| 20260507011743 | 7 | 220 | 3.2 | 3.2 | 0.00 | 1.04 | 1.04 | 79 | 1009.0 |
| 20260507011239 | 7 | 215 | 3.2 | 3.2 | 0.00 | 1.04 | 1.04 | 81 | 1009.1 |
| 20260507010738 | 7 | 168 | 1.6 | 3.2 | 0.00 | 1.04 | 1.04 | 81 | 1008.9 |
| 20260507010234 | 7 | 185 | 1.6 | 1.6 | 0.00 | 1.04 | 1.04 | 82 | 1009.0 |
| 20260507005732 | 7 | 166 | 0.0 | 1.6 | 0.00 | 1.04 | 1.04 | 81 | 1008.7 |
| 20260507005229 | 7 | 180 | 1.6 | 1.6 | 0.00 | 1.04 | 1.04 | 81 | 1008.6 |
| 20260507004725 | 7 | 187 | 0.0 | 1.6 | 0.00 | 1.04 | 1.04 | 81 | 1008.6 |
| 20260507004223 | 7 | 167 | 0.0 | 1.6 | 0.00 | 1.04 | 1.04 | 83 | 1008.7 |
| 20260507003719 | 7 | 181 | 1.6 | 1.6 | 0.00 | 1.04 | 1.04 | 83 | 1008.6 |
| 20260507003214 | 7 | 175 | 0.0 | 1.6 | 0.00 | 1.04 | 1.04 | 82 | 1008.3 |
| 20260507002710 | 7 | 206 | 1.6 | 1.6 | 0.00 | 1.04 | 1.04 | 82 | 1008.5 |
| 20260507002207 | 7 | 178 | 1.6 | 1.6 | 0.00 | 1.04 | 1.04 | 82 | 1008.4 |
| 20260507001703 | 7 | 192 | 1.6 | 1.6 | 0.00 | 1.04 | 1.04 | 82 | 1008.2 |
| 20260507001201 | 7 | 246 | 3.2 | 3.2 | 0.00 | 1.04 | 1.04 | 81 | 1008.6 |
| 20260507000657 | 7 | 191 | 1.6 | 1.6 | 0.00 | 1.04 | 1.04 | 82 | 1008.4 |
| 20260507000153 | 7 | 171 | 0.0 | 0.0 | 0.00 | 1.04 | 1.04 | 81 | 1008.4 |
| 20260506235650 | 7 | 173 | 0.0 | 1.6 | 0.00 | 1.04 | 1.04 | 81 | 1008.4 |
| 20260506235145 | 7 | 197 | 1.6 | 1.6 | 0.00 | 1.04 | 1.04 | 80 | 1008.4 |
| 20260506234643 | 7 | 174 | 1.6 | 1.6 | 0.00 | 1.04 | 1.04 | 79 | 1008.2 |
| 20260506234139 | 7 | 179 | 0.0 | 0.0 | 0.00 | 1.04 | 1.04 | 79 | 1008.4 |
| 20260506233637 | 7 | 246 | 3.2 | 3.2 | 0.00 | 1.04 | 1.04 | 78 | 1008.2 |
| 20260506233134 | 7 | 187 | 1.6 | 1.6 | 0.00 | 1.04 | 1.04 | 78 | 1008.1 |
| 20260506232630 | 7 | 176 | 0.0 | 1.6 | 0.00 | 1.04 | 1.04 | 77 | 1008.3 |
| 20260506232125 | 8 | 175 | 0.0 | 1.6 | 0.00 | 1.04 | 1.04 | 76 | 1008.0 |
| 20260506231623 | 8 | 172 | 0.0 | 1.6 | 0.00 | 1.04 | 1.04 | 77 | 1008.1 |
| 20260506231121 | 8 | 173 | 0.0 | 0.0 | 0.00 | 1.04 | 1.04 | 75 | 1007.8 |
| 20260506230617 | 8 | 179 | 0.0 | 1.6 | 0.00 | 1.04 | 1.04 | 75 | 1008.1 |
| 20260506230115 | 8 | 180 | 0.0 | 0.0 | 0.00 | 1.04 | 1.04 | 75 | 1008.1 |
| 20260506225611 | 8 | 183 | 1.6 | 1.6 | 0.00 | 1.04 | 1.04 | 73 | 1008.1 |
| 20260506225107 | 8 | 195 | 1.6 | 1.6 | 0.00 | 1.04 | 1.04 | 74 | 1008.0 |
| 20260506224604 | 8 | 168 | 0.0 | 0.0 | 0.00 | 1.04 | 1.04 | 76 | 1008.2 |
| 20260506224101 | 8 | 174 | 1.6 | 1.6 | 0.00 | 1.04 | 1.04 | 75 | 1008.2 |
| 20260506223557 | 8 | 172 | 0.0 | 0.0 | 0.00 | 1.04 | 1.04 | 75 | 1008.1 |
| 20260506223053 | 8 | 127 | 0.0 | 1.6 | 0.00 | 1.04 | 1.04 | 77 | 1007.9 |
| 20260506222550 | 8 | 106 | 1.6 | 1.6 | 0.00 | 1.04 | 1.04 | 74 | 1008.1 |
| 20260506222046 | 8 | 94 | 0.0 | 1.6 | 0.00 | 1.04 | 1.04 | 76 | 1008.3 |
| 20260506221544 | 8 | 165 | 1.6 | 3.2 | 0.00 | 1.04 | 1.04 | 77 | 1008.2 |
| 20260506221042 | 8 | 177 | 1.6 | 1.6 | 0.00 | 1.04 | 1.04 | 75 | 1008.2 |
| 20260506220537 | 8 | 193 | 1.6 | 1.6 | 0.00 | 1.04 | 1.04 | 77 | 1008.3 |
| 20260506220033 | 8 | 149 | 0.0 | 1.6 | 0.00 | 1.04 | 1.04 | 74 | 1008.2 |
| 20260506215531 | 8 | 94 | 1.6 | 1.6 | 0.00 | 1.04 | 1.04 | 74 | 1008.0 |
| 20260506215026 | 8 | 132 | 0.0 | 1.6 | 0.00 | 1.04 | 1.04 | 76 | 1008.1 |
| 20260506214523 | 8 | 139 | 1.6 | 1.6 | 0.00 | 1.04 | 1.04 | 74 | 1008.3 |
| 20260506214020 | 8 | 130 | 0.0 | 0.0 | 0.00 | 1.04 | 1.04 | 80 | 1008.1 |
| 20260506213519 | 8 | 286 | 0.0 | 0.0 | 0.00 | 1.04 | 1.04 | 81 | 1008.4 |
| 20260506213015 | 8 | 317 | 1.6 | 1.6 | 0.00 | 1.04 | 1.04 | 79 | 1008.1 |
| 20260506212512 | 8 | 350 | 4.8 | 4.8 | 0.00 | 1.04 | 1.04 | 76 | 1008.0 |
| 20260506212007 | 8 | 222 | 1.6 | 1.6 | 0.00 | 1.04 | 1.04 | 78 | 1008.2 |
| 20260506211502 | 8 | 17 | 3.2 | 3.2 | 0.00 | 1.04 | 1.04 | 75 | 1008.3 |
| 20260506211000 | 8 | 83 | 0.0 | 1.6 | 0.00 | 1.04 | 1.04 | 76 | 1008.4 |
| 20260506210456 | 8 | 197 | 1.6 | 3.2 | 0.00 | 1.04 | 1.04 | 76 | 1008.3 |
| 20260506205948 | 8 | 95 | 0.0 | 1.6 | 0.00 | 1.04 | 1.04 | 77 | 1008.1 |
| 20260506205444 | 8 | 187 | 1.6 | 1.6 | 0.00 | 1.04 | 1.04 | 75 | 1008.5 |
| 20260506204940 | 8 | 131 | 0.0 | 0.0 | 0.00 | 1.04 | 1.04 | 80 | 1008.2 |
| 20260506204438 | 8 | 74 | 1.6 | 1.6 | 0.00 | 1.04 | 1.04 | 75 | 1008.4 |
| 20260506203935 | 8 | 171 | 0.0 | 0.0 | 0.00 | 1.04 | 1.04 | 80 | 1008.4 |
| 20260506203432 | 8 | 257 | 1.6 | 3.2 | 0.00 | 1.04 | 1.04 | 76 | 1008.1 |
| 20260506202929 | 8 | 216 | 3.2 | 3.2 | 0.00 | 1.04 | 1.04 | 76 | 1008.4 |
| 20260506202427 | 8 | 24 | 4.8 | 4.8 | 0.00 | 1.04 | 1.04 | 76 | 1008.3 |
| 20260506201923 | 8 | 298 | 3.2 | 3.2 | 0.00 | 1.04 | 1.04 | 77 | 1008.4 |
| 20260506201420 | 8 | 26 | 1.6 | 3.2 | 0.00 | 1.04 | 1.04 | 78 | 1008.3 |
| 20260506200917 | 8 | 347 | 3.2 | 3.2 | 0.00 | 1.04 | 1.04 | 81 | 1008.4 |
| 20260506200413 | 7 | 165 | 0.0 | 0.0 | 0.00 | 1.04 | 1.04 | 82 | 1008.4 |
| 20260506195910 | 7 | 70 | 1.6 | 1.6 | 0.00 | 1.04 | 1.04 | 80 | 1008.5 |
| 20260506195407 | 7 | 263 | 3.2 | 3.2 | 0.00 | 1.04 | 1.04 | 80 | 1008.6 |
| 20260506194904 | 7 | 104 | 1.6 | 1.6 | 0.00 | 1.04 | 1.04 | 83 | 1008.7 |
| 20260506194401 | 7 | 341 | 1.6 | 3.2 | 0.00 | 1.04 | 1.04 | 81 | 1008.8 |
| 20260506193858 | 7 | 113 | 0.0 | 0.0 | 0.00 | 1.04 | 1.04 | 82 | 1008.7 |
| 20260506193354 | 7 | 19 | 3.2 | 4.8 | 0.00 | 1.04 | 1.04 | 81 | 1008.5 |
| 20260506192850 | 7 | 329 | 3.2 | 4.8 | 0.00 | 1.04 | 1.04 | 81 | 1008.8 |
| 20260506192347 | 7 | 339 | 3.2 | 3.2 | 0.00 | 1.04 | 1.04 | 80 | 1008.4 |
| 20260506191844 | 8 | 102 | 1.6 | 1.6 | 0.00 | 1.04 | 1.04 | 81 | 1008.4 |
| 20260506191341 | 7 | 143 | 0.0 | 0.0 | 0.00 | 1.04 | 1.04 | 81 | 1008.4 |
| 20260506190838 | 7 | 83 | 1.6 | 1.6 | 0.00 | 1.04 | 1.04 | 77 | 1008.7 |
| 20260506190334 | 7 | 118 | 0.0 | 0.0 | 0.00 | 1.04 | 1.04 | 81 | 1008.3 |
| 20260506185831 | 7 | 35 | 3.2 | 3.2 | 0.00 | 1.04 | 1.04 | 78 | 1008.5 |
| 20260506185328 | 7 | 99 | 0.0 | 1.6 | 0.00 | 1.04 | 1.04 | 80 | 1008.3 |
| 20260506184825 | 7 | 112 | 0.0 | 0.0 | 0.00 | 1.04 | 1.04 | 84 | 1008.3 |
| 20260506184322 | 8 | 148 | 3.2 | 3.2 | 0.00 | 1.04 | 1.04 | 79 | 1008.2 |
| 20260506183820 | 8 | 135 | 0.0 | 0.0 | 0.00 | 1.04 | 1.04 | 79 | 1008.4 |
| 20260506183315 | 7 | 163 | 1.6 | 1.6 | 0.00 | 1.04 | 1.04 | 78 | 1008.4 |
| 20260506182812 | 7 | 78 | 1.6 | 1.6 | 0.18 | 1.04 | 1.04 | 81 | 1008.5 |
| 20260506182309 | 7 | 91 | 1.6 | 1.6 | 0.18 | 1.04 | 1.04 | 83 | 1008.6 |
| 20260506181807 | 7 | 80 | 1.6 | 1.6 | 0.00 | 1.02 | 1.02 | 79 | 1008.7 |
| 20260506181305 | 7 | 156 | 1.6 | 1.6 | 0.00 | 1.02 | 1.02 | 82 | 1008.7 |
| 20260506180802 | 7 | 149 | 0.0 | 1.6 | 0.00 | 1.02 | 1.02 | 80 | 1008.8 |
| 20260506180257 | 7 | 149 | 0.0 | 0.0 | 0.00 | 1.02 | 1.02 | 85 | 1009.1 |
| 20260506175754 | 7 | 142 | 0.0 | 0.0 | 0.00 | 1.02 | 1.02 | 86 | 1009.0 |
| 20260506175251 | 7 | 95 | 1.6 | 1.6 | 0.00 | 1.02 | 1.02 | 83 | 1009.2 |
| 20260506174748 | 7 | 154 | 0.0 | 0.0 | 0.00 | 1.02 | 1.02 | 86 | 1009.0 |
| 20260506174245 | 7 | 162 | 1.6 | 1.6 | 0.00 | 1.02 | 1.02 | 86 | 1009.0 |
| 20260506173743 | 6 | 166 | 1.6 | 1.6 | 0.00 | 1.02 | 1.02 | 88 | 1009.3 |
| 20260506173240 | 6 | 338 | 3.2 | 3.2 | 0.00 | 1.02 | 1.02 | 83 | 1009.2 |
| 20260506172736 | 6 | 342 | 3.2 | 3.2 | 0.00 | 1.02 | 1.02 | 89 | 1009.6 |
| 20260506172233 | 6 | 82 | 0.0 | 1.6 | 0.00 | 1.02 | 1.02 | 85 | 1009.5 |
| 20260506171731 | 6 | 5 | 4.8 | 4.8 | 0.00 | 1.02 | 1.02 | 84 | 1009.4 |
| 20260506171228 | 6 | 88 | 0.0 | 1.6 | 0.00 | 1.02 | 1.02 | 87 | 1009.5 |
| 20260506170725 | 6 | 116 | 0.0 | 0.0 | 0.13 | 1.02 | 1.02 | 88 | 1009.3 |
| 20260506170222 | 6 | 61 | 1.6 | 1.6 | 0.13 | 1.02 | 1.02 | 82 | 1009.4 |
| 20260506165720 | 7 | 122 | 0.0 | 1.6 | 0.00 | 0.99 | 0.99 | 88 | 1009.5 |
| 20260506165217 | 7 | 243 | 1.6 | 3.2 | 0.00 | 0.99 | 0.99 | 86 | 1009.6 |
| 20260506164714 | 6 | 139 | 1.6 | 1.6 | 0.00 | 0.99 | 0.99 | 89 | 1009.7 |
| 20260506164211 | 6 | 143 | 1.6 | 1.6 | 0.18 | 0.99 | 0.99 | 88 | 1009.6 |
| 20260506163707 | 6 | 326 | 1.6 | 1.6 | 0.18 | 0.99 | 0.99 | 87 | 1009.8 |
| 20260506163202 | 6 | 57 | 1.6 | 3.2 | 0.00 | 0.97 | 0.97 | 87 | 1009.7 |
| 20260506162659 | 6 | 84 | 1.6 | 1.6 | 0.00 | 0.97 | 0.97 | 86 | 1009.7 |
| 20260506162156 | 6 | 63 | 1.6 | 3.2 | 0.13 | 0.97 | 0.97 | 88 | 1010.0 |
| 20260506161653 | 6 | 82 | 1.6 | 1.6 | 0.13 | 0.97 | 0.97 | 88 | 1010.0 |
| 20260506161150 | 6 | 141 | 0.0 | 0.0 | 0.18 | 0.94 | 0.94 | 90 | 1010.0 |
| 20260506160648 | 6 | 156 | 0.0 | 1.6 | 0.18 | 0.94 | 0.94 | 89 | 1010.1 |
| 20260506160145 | 6 | 217 | 1.6 | 3.2 | 0.00 | 0.91 | 0.91 | 89 | 1010.2 |
| 20260506155643 | 6 | 24 | 3.2 | 3.2 | 0.13 | 0.91 | 0.91 | 88 | 1010.2 |
| 20260506155140 | 6 | 105 | 0.0 | 0.0 | 0.13 | 0.91 | 0.91 | 91 | 1010.1 |
| 20260506153242 | 6 | 334 | 4.8 | 4.8 | 0.13 | 0.86 | 0.86 | 88 | 1010.2 |
| 20260506152739 | 6 | 88 | 0.0 | 1.6 | 0.13 | 0.86 | 0.86 | 89 | 1010.4 |
| 20260506152236 | 6 | 149 | 0.0 | 1.6 | 0.18 | 0.84 | 0.84 | 89 | 1010.5 |
| 20260506151735 | 6 | 167 | 1.6 | 1.6 | 0.30 | 0.84 | 0.84 | 88 | 1010.3 |
| 20260506151231 | 6 | 123 | 0.0 | 0.0 | 0.13 | 0.81 | 0.81 | 89 | 1010.2 |
| 20260506150728 | 6 | 72 | 1.6 | 1.6 | 0.18 | 0.79 | 0.79 | 88 | 1010.2 |
| 20260506150225 | 6 | 138 | 0.0 | 1.6 | 0.18 | 0.79 | 0.79 | 90 | 1010.4 |
| 20260506145722 | 6 | 113 | 0.0 | 0.0 | 0.18 | 0.76 | 0.76 | 90 | 1010.0 |
| 20260506145218 | 6 | 100 | 0.0 | 1.6 | 0.30 | 0.76 | 0.76 | 90 | 1010.3 |
| 20260506144716 | 6 | 68 | 1.6 | 1.6 | 0.13 | 0.74 | 0.74 | 87 | 1010.4 |
| 20260506144213 | 6 | 80 | 0.0 | 1.6 | 0.18 | 0.71 | 0.71 | 90 | 1010.4 |
| 20260506143710 | 6 | 93 | 1.6 | 1.6 | 0.13 | 0.69 | 0.69 | 91 | 1010.5 |
| 20260506143208 | 6 | 110 | 0.0 | 0.0 | 0.30 | 0.69 | 0.69 | 91 | 1010.2 |
| 20260506142706 | 6 | 99 | 1.6 | 1.6 | 0.18 | 0.66 | 0.66 | 91 | 1010.1 |
| 20260506142204 | 6 | 160 | 0.0 | 0.0 | 0.13 | 0.64 | 0.64 | 90 | 1010.2 |
| 20260506141702 | 6 | 203 | 0.0 | 1.6 | 0.13 | 0.64 | 0.64 | 88 | 1010.0 |
| 20260506141159 | 6 | 183 | 1.6 | 1.6 | 0.18 | 0.61 | 0.61 | 90 | 1010.2 |
| 20260506140657 | 6 | 176 | 1.6 | 1.6 | 0.18 | 0.61 | 0.61 | 88 | 1010.1 |
| 20260506140154 | 6 | 258 | 1.6 | 3.2 | 0.13 | 0.58 | 0.58 | 90 | 1010.0 |
| 20260506135650 | 6 | 173 | 0.0 | 1.6 | 0.13 | 0.58 | 0.58 | 89 | 1010.1 |
| 20260506135147 | 6 | 184 | 1.6 | 1.6 | 0.00 | 0.56 | 0.56 | 88 | 1010.1 |
| 20260506134643 | 6 | 258 | 3.2 | 4.8 | 0.18 | 0.56 | 0.56 | 87 | 1010.2 |
| 20260506134139 | 6 | 196 | 1.6 | 1.6 | 0.18 | 0.56 | 0.56 | 89 | 1010.2 |
| 20260506133637 | 6 | 183 | 1.6 | 1.6 | 0.00 | 0.53 | 0.53 | 88 | 1010.3 |
| 20260506133134 | 6 | 181 | 1.6 | 1.6 | 0.13 | 0.53 | 0.53 | 87 | 1010.4 |
| 20260506132631 | 6 | 234 | 1.6 | 3.2 | 0.13 | 0.53 | 0.53 | 88 | 1010.3 |
| 20260506132128 | 6 | 263 | 1.6 | 3.2 | 0.18 | 0.51 | 0.51 | 87 | 1010.3 |
| 20260506131625 | 6 | 234 | 1.6 | 3.2 | 0.30 | 0.51 | 0.51 | 86 | 1010.0 |
| 20260506131121 | 6 | 161 | 0.0 | 1.6 | 0.13 | 0.48 | 0.48 | 88 | 1010.1 |
| 20260506130619 | 6 | 160 | 0.0 | 0.0 | 0.13 | 0.48 | 0.48 | 89 | 1010.3 |
| 20260506130116 | 6 | 184 | 1.6 | 1.6 | 0.18 | 0.46 | 0.46 | 89 | 1010.3 |
| 20260506125614 | 6 | 160 | 1.6 | 1.6 | 0.18 | 0.43 | 0.43 | 88 | 1010.1 |
| 20260506125112 | 6 | 177 | 1.6 | 1.6 | 0.18 | 0.43 | 0.43 | 87 | 1010.2 |
| 20260506124609 | 6 | 191 | 1.6 | 1.6 | 0.13 | 0.41 | 0.41 | 89 | 1010.3 |
| 20260506124107 | 6 | 204 | 1.6 | 3.2 | 0.30 | 0.41 | 0.41 | 88 | 1010.4 |
| 20260506123604 | 6 | 222 | 3.2 | 3.2 | 0.30 | 0.38 | 0.38 | 88 | 1010.3 |
| 20260506123103 | 6 | 250 | 0.0 | 1.6 | 0.13 | 0.36 | 0.36 | 89 | 1010.0 |
| 20260506122559 | 6 | 177 | 0.0 | 1.6 | 0.18 | 0.33 | 0.33 | 88 | 1010.1 |
| 20260506122057 | 6 | 266 | 3.2 | 3.2 | 0.18 | 0.33 | 0.33 | 86 | 1010.0 |
| 20260506121554 | 7 | 250 | 3.2 | 4.8 | 0.13 | 0.30 | 0.30 | 85 | 1009.9 |
| 20260506121050 | 7 | 229 | 3.2 | 4.8 | 0.13 | 0.30 | 0.30 | 85 | 1009.9 |
| 20260506120549 | 7 | 164 | 0.0 | 0.0 | 0.00 | 0.28 | 0.28 | 88 | 1010.0 |
| 20260506120045 | 7 | 175 | 0.0 | 1.6 | 0.18 | 0.28 | 0.28 | 87 | 1010.3 |
| 20260506115543 | 7 | 170 | 1.6 | 1.6 | 0.18 | 0.28 | 0.28 | 87 | 1010.3 |
| 20260506115042 | 7 | 229 | 1.6 | 3.2 | 0.13 | 0.25 | 0.25 | 89 | 1010.5 |
| 20260506114539 | 7 | 185 | 1.6 | 1.6 | 0.13 | 0.25 | 0.25 | 89 | 1010.5 |
| 20260506114037 | 7 | 162 | 0.0 | 0.0 | 0.18 | 0.23 | 0.23 | 90 | 1010.5 |
| 20260506113535 | 7 | 202 | 1.6 | 1.6 | 0.18 | 0.23 | 0.23 | 90 | 1010.7 |
| 20260506113032 | 7 | 172 | 1.6 | 1.6 | 0.13 | 0.20 | 0.20 | 90 | 1010.5 |
| 20260506112528 | 7 | 177 | 1.6 | 1.6 | 0.30 | 0.20 | 0.20 | 89 | 1010.5 |
| 20260506112025 | 7 | 186 | 1.6 | 3.2 | 0.18 | 0.18 | 0.18 | 88 | 1010.6 |
| 20260506111524 | 7 | 176 | 1.6 | 1.6 | 0.13 | 0.15 | 0.15 | 88 | 1010.5 |
| 20260506111020 | 7 | 194 | 3.2 | 3.2 | 0.13 | 0.15 | 0.15 | 87 | 1010.6 |
| 20260506110518 | 7 | 162 | 0.0 | 1.6 | 0.00 | 0.13 | 0.13 | 87 | 1010.3 |
| 20260506110015 | 7 | 169 | 0.0 | 1.6 | 0.18 | 0.13 | 0.13 | 88 | 1010.1 |
| 20260506105511 | 7 | 167 | 1.6 | 1.6 | 0.18 | 0.13 | 0.13 | 87 | 1010.0 |
| 20260506105008 | 7 | 198 | 3.2 | 3.2 | 0.00 | 0.10 | 0.10 | 87 | 1010.1 |
| 20260506104507 | 7 | 159 | 1.6 | 1.6 | 0.18 | 0.10 | 0.10 | 87 | 1009.9 |
| 20260506104004 | 7 | 164 | 0.0 | 0.0 | 0.30 | 0.10 | 0.10 | 85 | 1010.1 |
| 20260506103501 | 7 | 217 | 1.6 | 1.6 | 0.13 | 0.08 | 0.08 | 85 | 1009.9 |
| 20260506102957 | 7 | 166 | 0.0 | 0.0 | 0.18 | 0.05 | 0.05 | 83 | 1010.0 |
| 20260506102456 | 7 | 237 | 4.8 | 4.8 | 0.18 | 0.05 | 0.05 | 85 | 1009.9 |
| 20260506101953 | 7 | 180 | 1.6 | 1.6 | 0.13 | 0.03 | 0.03 | 85 | 1010.0 |
| 20260506101449 | 7 | 187 | 4.8 | 4.8 | 0.13 | 0.03 | 0.03 | 83 | 1009.9 |
| 20260506100947 | 7 | 173 | 3.2 | 3.2 | 0.00 | 0.00 | 0.00 | 81 | 1009.9 |
| 20260506100445 | 8 | 170 | 6.4 | 9.7 | 0.00 | 0.00 | 0.00 | 80 | 1010.0 |
| 20260506095943 | 8 | 158 | 1.6 | 3.2 | 0.00 | 0.00 | 0.00 | 78 | 1009.8 |
| 20260506095441 | 8 | 183 | 3.2 | 3.2 | 0.00 | 0.00 | 0.00 | 78 | 1009.8 |
| 20260506094937 | 8 | 172 | 4.8 | 4.8 | 0.00 | 0.00 | 0.00 | 79 | 1009.9 |
| 20260506094436 | 8 | 162 | 3.2 | 3.2 | 0.00 | 0.00 | 0.00 | 77 | 1009.8 |
| 20260506093933 | 8 | 182 | 3.2 | 3.2 | 0.00 | 0.00 | 0.00 | 75 | 1009.9 |
| 20260506093431 | 8 | 165 | 4.8 | 4.8 | 0.00 | 0.00 | 0.00 | 75 | 1009.6 |
| 20260506092928 | 8 | 177 | 0.0 | 1.6 | 0.00 | 0.00 | 0.00 | 75 | 1009.2 |
| 20260506092426 | 8 | 175 | 0.0 | 1.6 | 0.00 | 0.00 | 0.00 | 73 | 1009.5 |
| 20260506091922 | 8 | 208 | 3.2 | 4.8 | 0.00 | 0.00 | 0.00 | 72 | 1009.4 |
| 20260506091421 | 8 | 211 | 4.8 | 4.8 | 0.00 | 0.00 | 0.00 | 73 | 1009.3 |
| 20260506090917 | 8 | 221 | 3.2 | 4.8 | 0.00 | 0.00 | 0.00 | 73 | 1009.1 |
| 20260506090415 | 8 | 225 | 4.8 | 4.8 | 0.00 | 0.00 | 0.00 | 72 | 1009.2 |
| 20260506085912 | 8 | 211 | 6.4 | 9.7 | 0.00 | 0.00 | 0.00 | 72 | 1009.0 |
| 20260506085408 | 8 | 261 | 3.2 | 4.8 | 0.00 | 0.00 | 0.00 | 73 | 1009.2 |
| 20260506084904 | 8 | 255 | 8.0 | 11.3 | 0.00 | 0.00 | 0.00 | 73 | 1009.5 |
| 20260506084401 | 8 | 238 | 4.8 | 4.8 | 0.00 | 0.00 | 0.00 | 73 | 1009.2 |
| 20260506083858 | 8 | 225 | 1.6 | 3.2 | 0.00 | 0.00 | 0.00 | 73 | 1009.3 |
| 20260506083355 | 8 | 230 | 3.2 | 3.2 | 0.00 | 0.00 | 0.00 | 74 | 1009.4 |
| 20260506082852 | 8 | 256 | 8.0 | 9.7 | 0.00 | 0.00 | 0.00 | 73 | 1009.3 |
| 20260506082349 | 8 | 263 | 4.8 | 8.0 | 0.00 | 0.00 | 0.00 | 73 | 1009.2 |
| 20260506081845 | 8 | 207 | 6.4 | 11.3 | 0.00 | 0.00 | 0.00 | 73 | 1009.3 |
| 20260506081344 | 8 | 285 | 4.8 | 8.0 | 0.00 | 0.00 | 0.00 | 73 | 1009.2 |
| 20260506080841 | 9 | 235 | 4.8 | 9.7 | 0.00 | 0.00 | 0.00 | 72 | 1008.9 |
| 20260506080337 | 9 | 183 | 6.4 | 11.3 | 0.00 | 0.00 | 0.00 | 72 | 1009.1 |
| 20260506073321 | 9 | 199 | 6.4 | 9.7 | 0.00 | 0.00 | 0.00 | 72 | 1009.2 |
| 20260506072818 | 9 | 191 | 1.6 | 1.6 | 0.00 | 0.00 | 0.00 | 72 | 1009.2 |
| 20260506072316 | 9 | 255 | 8.0 | 11.3 | 0.00 | 0.00 | 0.00 | 72 | 1009.1 |
| 20260506071813 | 9 | 286 | 11.3 | 17.7 | 0.00 | 0.00 | 0.00 | 72 | 1009.1 |
| 20260506071311 | 9 | 243 | 8.0 | 9.7 | 0.00 | 0.00 | 0.00 | 71 | 1009.0 |
| 20260506070808 | 9 | 243 | 4.8 | 8.0 | 0.00 | 0.00 | 0.00 | 72 | 1008.9 |
| 20260506070305 | 9 | 217 | 6.4 | 8.0 | 0.00 | 0.00 | 0.00 | 71 | 1008.8 |
| 20260506062242 | 9 | 252 | 1.6 | 3.2 | 0.00 | 0.00 | 0.00 | 72 | 1008.8 |
| 20260506061738 | 9 | 195 | 1.6 | 3.2 | 0.00 | 0.00 | 0.00 | 73 | 1008.8 |
| 20260506061235 | 9 | 221 | 4.8 | 4.8 | 0.00 | 0.00 | 0.00 | 73 | 1008.7 |
| 20260506060734 | 9 | 166 | 8.0 | 17.7 | 0.00 | 0.00 | 0.00 | 73 | 1008.7 |
| 20260506060231 | 9 | 209 | 8.0 | 14.5 | 0.00 | 0.00 | 0.00 | 73 | 1008.6 |
| 20260506051203 | 10 | 234 | 6.4 | 8.0 | 0.00 | 0.00 | 0.00 | 76 | 1008.6 |
| 20260506050701 | 10 | 201 | 4.8 | 8.0 | 0.00 | 0.00 | 0.00 | 78 | 1008.4 |
| 20260506050158 | 10 | 194 | 3.2 | 3.2 | 0.00 | 0.00 | 0.00 | 77 | 1008.6 |
| 20260506044649 | 10 | 212 | 3.2 | 3.2 | 0.00 | 0.00 | 0.00 | 78 | 1008.6 |
| 20260506044145 | 10 | 237 | 3.2 | 3.2 | 0.00 | 0.00 | 0.00 | 77 | 1008.5 |
| 20260506043643 | 10 | 258 | 6.4 | 8.0 | 0.00 | 0.00 | 0.00 | 77 | 1008.4 |
| 20260506043140 | 10 | 221 | 6.4 | 11.3 | 0.00 | 0.00 | 0.00 | 77 | 1008.2 |
| 20260506042639 | 10 | 235 | 9.7 | 11.3 | 0.00 | 0.00 | 0.00 | 77 | 1008.0 |
| 20260506042137 | 10 | 244 | 11.3 | 16.1 | 0.00 | 0.00 | 0.00 | 76 | 1007.9 |
| 20260506041635 | 10 | 215 | 11.3 | 14.5 | 0.00 | 0.00 | 0.00 | 75 | 1007.7 |
| 20260506041132 | 11 | 265 | 6.4 | 8.0 | 0.00 | 0.00 | 0.00 | 75 | 1007.8 |
| 20260506040629 | 11 | 266 | 9.7 | 14.5 | 0.00 | 0.00 | 0.00 | 74 | 1007.9 |
| 20260506040126 | 11 | 243 | 12.9 | 20.9 | 0.00 | 0.00 | 0.00 | 74 | 1007.6 |
| 20260506035623 | 11 | 271 | 6.4 | 9.7 | 0.00 | 0.20 | 0.20 | 74 | 1007.8 |
| 20260506035119 | 11 | 231 | 3.2 | 3.2 | 0.00 | 0.20 | 0.20 | 74 | 1007.8 |
| 20260506034616 | 11 | 224 | 4.8 | 8.0 | 0.00 | 0.20 | 0.20 | 74 | 1007.8 |
| 20260506034108 | 11 | 229 | 8.0 | 8.0 | 0.00 | 0.20 | 0.20 | 74 | 1007.3 |
| 20260506033605 | 11 | 244 | 14.5 | 16.1 | 0.00 | 0.20 | 0.20 | 73 | 1007.3 |
| 20260506033102 | 11 | 200 | 8.0 | 11.3 | 0.00 | 0.20 | 0.20 | 73 | 1007.2 |
| 20260506032600 | 11 | 181 | 11.3 | 14.5 | 0.00 | 0.20 | 0.20 | 74 | 1007.0 |
| 20260506032056 | 11 | 251 | 12.9 | 16.1 | 0.00 | 0.20 | 0.20 | 74 | 1006.9 |
| 20260506031554 | 11 | 248 | 12.9 | 14.5 | 0.00 | 0.20 | 0.20 | 74 | 1006.8 |